Bellingham, Washington, United States (98225)
Lat: 48.76N, Lon: 122.49W
Wx Zone: WAZ503
Local Info
Past Weather Observations for Tuesday, March 24, 2015

NOTE: This archive is for the closest National Weather Service station to Bellingham. Information may differ from the station used for current weather conditions.

Click here for Long-term Archive

Time Weather Temperature Dewpoint Humidity Pressure Winds Precip Visibility
23:53
Overcast
52°F / 11°C 37°F / 3°C 58% 30.21 in
(1023 mb)
SSE 9.2 mph
(SSE 15 kph)
0.00 in
(0.00 mm)
10SM
22:53
Overcast
52°F / 11°C 39°F / 4°C 62% 30.21 in
(1023 mb)
SE 11.5 mph
(SE 19 kph)
- 10SM
21:53
Overcast
50°F / 10°C 41°F / 5°C 71% 30.21 in
(1023 mb)
ESE 4.6 mph
(ESE 7 kph)
- 10SM
20:53
Mostly Cloudy
48°F / 9°C 43°F / 6°C 82% 30.21 in
(1023 mb)
Calm - 10SM
19:53
Overcast
50°F / 10°C 43°F / 6°C 76% 30.21 in
(1023 mb)
Calm - 10SM
18:53
Overcast
52°F / 11°C 39°F / 4°C 62% 30.21 in
(1023 mb)
Calm - 10SM
17:53
Overcast
54°F / 12°C 37°F / 3°C 54% 30.21 in
(1023 mb)
Calm - 10SM
16:53
Partly Cloudy
54°F / 12°C 37°F / 3°C 54% 30.21 in
(1023 mb)
Calm - 10SM
15:53
Partly Cloudy
54°F / 12°C 37°F / 3°C 54% 30.18 in
(1022 mb)
SSE 6.9 mph
(SSE 11 kph)
- 10SM
14:53
Clear
55°F / 13°C 39°F / 4°C 55% 30.18 in
(1022 mb)
SSE 9.2 mph
(SSE 15 kph)
- 10SM
13:53
Clear
54°F / 12°C 39°F / 4°C 58% 30.18 in
(1022 mb)
SSE 10.4 mph
(SSE 17 kph)
- 10SM
12:53
Clear
54°F / 12°C 39°F / 4°C 58% 30.18 in
(1022 mb)
SSE 8.1 mph
(SSE 13 kph)
- 10SM
11:53
Clear
52°F / 11°C 39°F / 4°C 62% 30.15 in
(1021 mb)
S 8.1 mph
(S 13 kph)
- 10SM
10:53
Mostly Cloudy
52°F / 11°C 39°F / 4°C 62% 30.15 in
(1021 mb)
SSE 10.4 mph
(SSE 17 kph)
- 10SM
09:53
Partly Cloudy
50°F / 10°C 43°F / 6°C 76% 30.12 in
(1020 mb)
S 9.2 mph
(S 15 kph)
- 10SM
08:53
Mostly Cloudy
48°F / 9°C 43°F / 6°C 82% 30.09 in
(1019 mb)
S 10.4 mph
(S 17 kph)
- 10SM
07:53
Mostly Cloudy
46°F / 8°C 45°F / 7°C 93% 30.06 in
(1018 mb)
Calm - 10SM
07:44
Mostly Cloudy
46°F / 8°C 43°F / 6°C 87% 30.06 in
(1018 mb)
Calm - 10SM
07:12
Overcast
Fog And Mist
45°F / 7°C 43°F / 6°C 93% 30.06 in
(1018 mb)
SSE 4.6 mph
(SSE 7 kph)
- 3SM
06:53
Overcast
Fog And Mist
45°F / 7°C 41°F / 5°C 87% 30.04 in
(1017 mb)
Calm - 3SM
06:13
Overcast
Fog And Mist
43°F / 6°C 41°F / 5°C 93% 30.04 in
(1017 mb)
Calm - 3SM
05:53
Overcast
Fog And Mist
43°F / 6°C 41°F / 5°C 93% 30.01 in
(1016 mb)
Calm - 3SM
05:51
Overcast
Fog And Mist
43°F / 6°C 41°F / 5°C 93% 30.01 in
(1016 mb)
Calm - 3SM
05:41
Overcast
Fog And Mist
43°F / 6°C 41°F / 5°C 93% 30.01 in
(1016 mb)
Calm - 1 1/2SM
05:25
Overcast
Fog And Mist
43°F / 6°C 43°F / 6°C 100% 30.01 in
(1016 mb)
Calm - 2 1/2SM
05:14
Overcast
Fog And Mist
43°F / 6°C 41°F / 5°C 93% 30.01 in
(1016 mb)
Calm - 3SM
04:53
Overcast
Fog And Mist
43°F / 6°C 41°F / 5°C 93% 30.01 in
(1016 mb)
Calm 0.00 in
(0.00 mm)
2 1/2SM
04:48
Overcast
Fog And Mist
43°F / 6°C 39°F / 4°C 87% 30.01 in
(1016 mb)
Calm 0.00 in
(0.00 mm)
2 1/2SM
03:53
Overcast
Light Rain
45°F / 7°C 43°F / 6°C 93% 29.98 in
(1015 mb)
Calm 0.01 in
(0.25 mm)
4SM
02:53
Overcast
Light Rain
45°F / 7°C 43°F / 6°C 93% 29.95 in
(1014 mb)
Calm 0.00 in
(0.00 mm)
5SM
01:53
Overcast
Fog And Mist
45°F / 7°C 43°F / 6°C 93% 29.95 in
(1014 mb)
N 3.5 mph
(N 6 kph)
- 6SM
00:53
Overcast
45°F / 7°C 43°F / 6°C 93% 29.92 in
(1013 mb)
N 4.6 mph
(N 7 kph)
- 7SM
00:50
Overcast
45°F / 7°C 43°F / 6°C 93% 29.92 in
(1013 mb)
N 4.6 mph
(N 7 kph)
- 7SM
Time Weather Temperature Dewpoint Humidity Pressure Winds Precip Visibility


Weather for websites

WeatherForYou.com, LLC is not responsible for any damages or problems caused by this service. Current weather conditions are obtained from the closest station including government and personal stations which may have varying degrees of accuracy. Weather forecasts are derived from the NOAA NDFD. Like all things, this site belongs to Jesus Christ... He just trusts me to maintain it. If you have any questions or comments email webmaster@weatherforyou.com

Copyright © 2015, WeatherForYou.com LLC. All rights reserved.